This is the latest recevied weather packets stored in our database for station/object KX4O-13. If no packets are shown the sender has not sent any weather packets the latest 10 day(s).
| Time | Temp. | Humidity | Pressure | Rain* | Wind** | Luminosity | Snow |
|---|---|---|---|---|---|---|---|
| 1777901155 | 14.44° C | 61% | 1014.7 hPa | 0 mm | - | 364 W/m² | - |
| 1777900855 | 13.89° C | 61% | 1014.7 hPa | 0 mm | - | 364 W/m² | - |
| 1777900555 | 13.89° C | 61% | 1014.7 hPa | 0 mm | - | 364 W/m² | - |
| 1777900255 | 13.33° C | 61% | 1014.8 hPa | 0 mm | - | 357 W/m² | - |
| 1777899955 | 12.78° C | 62% | 1014.8 hPa | 0 mm | - | 343 W/m² | - |
| 1777899655 | 12.78° C | 59% | 1014.9 hPa | 0 mm | - | 327 W/m² | - |
| 1777899355 | 12.78° C | 61% | 1015 hPa | 0 mm | - | 315 W/m² | - |
| 1777899057 | 12.22° C | 62% | 1014.9 hPa | 0 mm | - | 295 W/m² | - |
| 1777898755 | 11.67° C | 62% | 1014.9 hPa | 0 mm | - | 292 W/m² | - |
| 1777898455 | 11.67° C | 66% | 1015 hPa | 0 mm | - | 283 W/m² | - |
| 1777898155 | 11.11° C | 67% | 1015.1 hPa | 0 mm | - | 274 W/m² | - |
| 1777897855 | 11.11° C | 67% | 1014.9 hPa | 0 mm | - | 269 W/m² | - |
| 1777897555 | 10.56° C | 67% | 1015 hPa | 0 mm | - | 264 W/m² | - |
| 1777897255 | 10.56° C | 69% | 1015.1 hPa | 0 mm | - | 139 W/m² | - |
| 1777896955 | 10.56° C | 68% | 1015.1 hPa | 0 mm | - | 97 W/m² | - |
| 1777896657 | 10° C | 68% | 1015.1 hPa | 0 mm | - | 162 W/m² | - |
| 1777896355 | 10° C | 70% | 1015.2 hPa | 0 mm | - | 162 W/m² | - |
| 1777896055 | 9.44° C | 70% | 1015 hPa | 0 mm | - | 195 W/m² | - |
| 1777895755 | 9.44° C | 73% | 1015.1 hPa | 0 mm | - | 102 W/m² | - |
| 1777895455 | 8.89° C | 73% | 1015.1 hPa | 0 mm | - | 63 W/m² | - |
| 1777895155 | 8.89° C | 73% | 1015.3 hPa | 0 mm | - | 49 W/m² | - |
| 1777894855 | 8.89° C | 75% | 1015.3 hPa | 0 mm | - | 90 W/m² | - |
| 1777894555 | 8.33° C | 77% | 1015.4 hPa | 0 mm | - | 70 W/m² | - |
| 1777894257 | 7.78° C | 80% | 1015.4 hPa | 0 mm | - | 70 W/m² | - |
| 1777893955 | 7.22° C | 83% | 1015.3 hPa | 0 mm | - | 54 W/m² | - |
* Rain latest hour (hover to see other rain measurements)
** Current wind speed in m/s (hover to see current wind gust speed)